This is the latest recevied weather packets stored in our database for station/object HI3LT-13. If no packets are shown the sender has not sent any weather packets the latest 10 day(s).
| Time | Temp. | Humidity | Pressure | Rain* | Wind** | Luminosity | Snow |
|---|---|---|---|---|---|---|---|
| 1788550546 | 35.56° C | 54% | 1012 hPa | 0 mm | - | - | - |
| 1788549946 | 35.56° C | 55% | 1012 hPa | 0 mm | - | - | - |
| 1788549345 | 36.11° C | 54% | 1012 hPa | 0 mm | - | - | - |
| 1788548745 | 36.11° C | 55% | 1012 hPa | 0 mm | - | - | - |
| 1788548144 | 35.56° C | 57% | 1013 hPa | 0 mm | - | - | - |
| 1788547543 | 35.56° C | 58% | 1013 hPa | 0 mm | - | - | - |
| 1788546943 | 35.56° C | 59% | 1013 hPa | 0 mm | - | - | - |
| 1788546342 | 35.56° C | 60% | 1013 hPa | 0 mm | - | - | - |
| 1788545741 | 35.56° C | 63% | 1013 hPa | 0 mm | - | - | - |
| 1788545140 | 36.11° C | 64% | 1013 hPa | 0 mm | - | - | - |
| 1788544540 | 34.44° C | 64% | 1013 hPa | 0 mm | - | - | - |
| 1788543939 | 33.33° C | 63% | 1014 hPa | 0 mm | - | - | - |
| 1788543338 | 33.33° C | 63% | 1014 hPa | 0 mm | - | - | - |
| 1788542738 | 33.33° C | 63% | 1014 hPa | 0 mm | - | - | - |
| 1788542137 | 35° C | 64% | 1014 hPa | 0 mm | - | - | - |
| 1788541537 | 35° C | 64% | 1014 hPa | 0 mm | - | - | - |
| 1788540936 | 35° C | 64% | 1014 hPa | 0 mm | - | - | - |
| 1788540335 | 35° C | 64% | 1014 hPa | 0 mm | - | - | - |
| 1788539734 | 33.89° C | 63% | 1014 hPa | 0 mm | - | - | - |
| 1788539133 | 33.33° C | 64% | 1015 hPa | 0 mm | - | - | - |
| 1788538533 | 31.67° C | 64% | 1015 hPa | 0 mm | - | - | - |
| 1788537932 | 33.33° C | 68% | 1015 hPa | 0 mm | - | - | - |
| 1788537331 | 31.67° C | 67% | 1015 hPa | 0 mm | - | - | - |
| 1788536746 | 33.33° C | 67% | 1015 hPa | 0 mm | - | - | - |
| 1788536130 | 31.11° C | 66% | 1015 hPa | 0 mm | - | - | - |
* Rain latest hour (hover to see other rain measurements)
** Current wind speed in m/s (hover to see current wind gust speed)